星链-35906(STARLINK-35906)

导读 | 豆包AI

STARLINK-35906是美国太空探索技术公司Starlink星链互联网项目中的一颗卫星,于2025年12月15日由美国发射升空,星链项目旨在构建全球卫星互联网星座,为全球提供高速低延迟网络服务,该卫星将加入规模庞大的星链卫星队列,助力全球覆盖网络的完善。

基本信息
目录编号:
67112
目录名称:
STARLINK-35906
国际标识:
2025-299L
轨道中心:
EARTH
卫星名称:
星链-35906
卫星全名:
星链-35906(STARLINK-35906)
卫星状态:
在轨 (已飞行135 天)
发射日期:
2025-12-15 UTC
国别 :
美国 (US)
星等 :
--
轨道信息
数据来源 国际轨道数据 AOE轨道数据
星历时间 2026-04-28T17:16:03+0800
17小时前
查看轨道信息
2026-04-23T10:00:00+0800
6天前
查看轨道信息
半长轴 6861.264km 6861.054km
偏心率 0.0001445 0.0001546
轨道倾角 42.997° 43.001°
近地点辐角 284.193° 291.791°
升交点赤经 248.590° 278.547°
平近点角 75.876° 32.486°
近地点 482.135km 481.856km
远地点 484.119km 483.978km
周期 94.268分钟 94.264分钟
每日圈数 15.275543 15.276243
详细信息
固有亮度:
5
最大亮度:
2.5
卫星平台:
Starlink V1.0
覆盖范围:
全球
运营商:
太空探索技术公司
运营商所在国:
美国
制造商(研发单位):
太空探索技术公司
制造商所在国:
美国
使用方式:
暂无
卫星简介
Starlink 计划是 SpaceX 推出的全球卫星互联网项目,通过发射低轨道卫星,为全球尤其是偏远地区提供高速、低延迟的互联网服务。自 2019 年起,Starlink 已部署数千颗卫星,旨在缩小全球数字鸿沟,推动互联网普及。该项目还为军事、航空等行业提供通信支持,带来广泛经济效益。
2D轨道图
3D轨道图
轨道高度分析图
轨道倾角分析图
轨道综合分析图
查看轨道综合分析图